This demonstration page uses our WeatherBlox Daily Observations layout. Learn more.

Left ArrowRight Arrow

39.29038, -76.61219

Hourly Observations for June 3, 2020

Temp ( °F °C ) Dew Point ( °F °C ) Humidity (%) Winds ( mph kmh ) Pressure ( in mb ) Visibility ( mi km ) Precip ( " mm )
12:54 am 00:54 undefined 68 20 55 12.8 63 63 undefined N/A 29.82 1010 N/A 0.00 0.00
1:54 am 01:54 undefined 67 19.4 55 12.8 66 66 undefined N/A 29.79 1009 N/A 0.00 0.00
2:54 am 02:54 undefined 68 20 56 13.3 65 65 undefined N/A 29.78 1008 N/A 0.00 0.00
3:54 am 03:54 undefined 69 20.6 57 13.9 66 66 undefined N/A 29.78 1008 N/A 0.00 0.00
4:54 am 04:54 undefined 69 20.6 58 14.4 68 68 undefined N/A 29.77 1008 N/A 0.00 0.00
5:54 am 05:54 undefined 70 21.1 58 14.4 66 66 undefined N/A 29.76 1008 N/A 0.00 0.00
6:54 am 06:54 undefined 72 22.2 59 15 64 64 undefined N/A 29.75 1008 N/A 0.00 0.00
7:54 am 07:54 undefined 76 24.4 61 16.1 60 60 undefined N/A 29.75 1007 N/A 0.00 0.00
8:54 am 08:54 undefined 81 27.2 60 15.6 49 49 undefined N/A 29.74 1007 N/A 0.00 0.00
9:54 am 09:54 undefined 82 27.8 61 16.1 49 49 undefined N/A 29.72 1006 N/A 0.00 0.00
10:54 am 10:54 undefined 87 30.6 62 16.7 43 43 undefined N/A 29.71 1006 N/A 0.00 0.00
11:54 am 11:54 undefined N/A N/A N/A undefined N/A 29.72 1007 N/A 0.00 0.00
12:54 pm 12:54 undefined N/A N/A N/A undefined N/A 29.71 1006 N/A 0.00 0.00
1:54 pm 13:54 undefined N/A N/A N/A undefined N/A 29.68 1005 N/A 0.00 0.00
2:54 pm 14:54 undefined N/A N/A N/A undefined N/A 29.68 1005 N/A 0.00 0.00
3:54 pm 15:54 undefined N/A N/A N/A undefined N/A 29.66 1005 N/A 0.00 0.00
4:54 pm 16:54 undefined N/A N/A N/A undefined N/A 29.66 1005 N/A 0.00 0.00
5:54 pm 17:54 undefined N/A N/A N/A undefined N/A 29.65 1004 N/A 0.00 0.00
6:54 pm 18:54 undefined N/A N/A N/A undefined N/A 29.65 1004 N/A 0.00 0.00
7:54 pm 19:54 undefined N/A N/A N/A undefined N/A 29.68 1005 N/A 0.00 0.00
8:54 pm 20:54 undefined N/A N/A N/A undefined N/A 29.69 1006 N/A 0.00 0.00
9:54 pm 21:54 undefined N/A N/A N/A undefined N/A 29.71 1006 N/A 0.00 0.00
10:54 pm 22:54 undefined N/A N/A N/A undefined N/A 29.75 1008 N/A 0.00 0.00
11:54 pm 23:54 undefined N/A N/A N/A undefined N/A 29.77 1008 N/A 0.00 0.00

Powered by AerisWeather